Location: ??
(34.7707°N, 135.6540°E)
Time: 18:50:27
(UTC+00:00)

CZ-4B R/B - Pass Details

Date: 09 April 2020
Orbit: 487 x 652 km, 97.9° (Epoch: 05 June)

Event Time Altitude Azimuth Distance (km) Brightness Sun altitude
Rises 19:36:16 0° 14° (NNE) 2,919 7.0 -12.0°
Reaches altitude 10° 19:38:28 10° 16° (NNE) 2,025 6.2 -11.5°
Maximum altitude 19:42:54 73° 101° (ESE) 679 3.4 -10.7°
Drops below altitude 10° 19:47:23 10° 187° (S) 2,048 5.5 -9.8°
Sets 19:49:36 0° 189° (S) 2,955 6.3 -9.4°
